EW8061 Weather Reports


Display with metric or nautical units.
time (UTC)temp
F
wind
direction
speed
MPH
gust
MPH
rain 1hr
in
rain 24hr
in
rain mn
in
humidity
%
barometer
mb
20260505041608 49 143 0.0 0.0 0.00 0.01 0.00 91 1007.8
20260505040104 48 143 0.0 0.0 0.00 0.01 0.00 91 1007.9
20260505034611 48 143 0.0 0.0 0.00 0.01 0.00 91 1007.9
20260505033057 48 143 0.0 0.0 0.00 0.01 0.00 91 1008.0
20260505031555 48 143 0.0 0.0 0.00 0.01 0.00 91 1008.0
20260505024608 48 143 0.0 0.0 0.00 0.01 0.00 91 1008.3
20260505023051 48 143 0.0 0.0 0.00 0.01 0.00 90 1008.3
20260505021550 48 143 0.0 0.0 0.00 0.01 0.00 90 1008.5
20260505014548 48 143 0.0 0.0 0.00 0.01 0.00 90 1008.7
20260505013045 47 143 0.0 0.0 0.00 0.01 0.00 89 1008.9
20260505011547 47 143 0.0 0.0 0.00 0.01 0.00 88 1008.9
20260505010059 47 143 0.0 0.0 0.00 0.01 0.00 88 1009.1
20260505004558 48 143 0.0 0.0 0.00 0.01 0.00 88 1009.1
20260505003039 48 143 0.0 0.0 0.00 0.01 0.00 88 1009.3
20260505001540 48 143 0.0 0.0 0.00 0.01 0.00 88 1009.3
20260505000037 49 143 0.0 0.0 0.00 0.01 0.00 87 1009.2
20260504234533 49 143 0.0 0.0 0.00 0.01 0.00 87 1009.4
20260504233031 50 143 0.0 0.0 0.00 0.01 0.00 87 1009.4
20260504231528 50 143 0.0 0.0 0.00 0.01 0.00 87 1009.5
20260504230026 51 143 0.0 0.0 0.00 0.01 0.00 87 1009.7
20260504224532 52 143 0.0 1.0 0.00 0.01 0.00 86 1009.8
20260504223021 53 143 0.0 0.0 0.00 0.01 0.00 85 1009.7
20260504221518 53 143 0.0 3.0 0.00 0.01 0.00 85 1009.8
20260504220015 54 143 0.0 3.0 0.00 0.01 0.00 85 1009.7
20260504214514 54 143 0.0 0.0 0.00 0.01 0.01 84 1009.9
20260504213029 55 143 0.0 3.0 0.00 0.01 0.01 83 1010.1
20260504211513 55 143 0.0 0.0 0.00 0.01 0.01 83 1010.2
20260504210011 55 143 0.0 0.0 0.00 0.01 0.01 82 1010.4
20260504204512 56 143 0.0 0.0 0.00 0.01 0.01 82 1010.6
20260504203010 56 143 0.0 0.0 0.00 0.01 0.01 82 1010.7
20260504201509 56 143 0.0 0.0 0.00 0.01 0.01 81 1010.7
20260504200009 56 143 0.0 0.0 0.00 0.01 0.01 80 1010.6
20260504194515 57 143 0.0 0.0 0.00 0.01 0.01 79 1010.6
20260504193011 57 143 0.0 4.0 0.00 0.01 0.01 79 1010.5
20260504191507 58 143 0.0 1.0 0.00 0.01 0.01 78 1010.4
20260504190007 58 143 1.0 5.0 0.00 0.01 0.01 78 1010.4
20260504184519 58 143 0.0 9.0 0.00 0.01 0.01 77 1010.4
20260504183005 59 144 1.0 4.0 0.00 0.01 0.01 77 1010.3
20260504181505 59 144 1.0 8.0 0.00 0.01 0.01 77 1010.2
20260504180005 59 144 1.0 8.0 0.00 0.01 0.01 77 1010.2
20260504174503 59 145 1.0 7.0 0.00 0.01 0.01 76 1010.1
20260504173010 59 144 3.0 8.0 0.00 0.01 0.01 75 1010.2
20260504171502 60 157 4.0 8.0 0.00 0.01 0.01 75 1010.2
20260504081519 55 113 2.0 7.0 0.00 0.00 0.00 88 1012.7
20260504060107 51 106 1.0 6.0 0.00 0.00 0.00 89 1012.2